Wind_Speed
14 15 15 15 14 13 11 9 9 9 9 9 8 8 9 10 7 6 8 4 4 10 9 5 4 4 4 3 11 14 11 10 9 9 12 13 13 10 10 10 10 10 10 10 10 9 9 9 9 9 9 10 11 11 11 12 12 13 13 14 15 15 15 14 14 14 14 14 13 13 13 12 12 12 13 14 14 14 15 15 15 15 16 17 16
15 13 14 14 14 12 10 8 8 8 8 7 7 6 7 8 7 7 6 3 4 8 8 5 4 5 5 4 10 14 12 8 8 9 11 11 13 13 12 12 11 11 10 11 10 9 9 9 9 9 9 10 12 12 13 14 15 16 16 17 17 16 15 15 14 15 15 15 15 15 15 14 14 13 13 14 14 14 14 15 15 15 16 17 16
16 13 13 13 13 13 11 9 8 9 8 7 8 7 7 9 9 9 6 5 6 7 6 6 6 7 7 7 10 14 12 8 9 11 9 11 14 15 14 13 12 10 10 11 11 11 11 10 11 10 11 12 13 14 15 16 17 17 17 17 17 15 14 13 13 13 14 15 16 15 15 16 16 15 15 15 15 14 14 14 14 14 15 16 16
15 14 14 13 14 15 12 11 10 10 9 8 9 9 8 8 9 10 7 7 5 4 6 8 10 9 8 9 9 12 13 9 10 11 10 12 15 14 13 13 12 11 11 12 12 12 12 11 11 12 13 14 15 16 16 17 16 15 13 13 14 13 12 12 12 12 11 12 13 13 13 13 14 15 15 16 16 16 15 14 13 13 14 14 15
14 15 14 13 15 16 13 11 11 11 10 9 10 10 10 9 9 10 9 8 5 5 8 11 12 9 8 9 9 10 11 11 12 11 12 14 14 13 12 13 13 13 13 13 13 13 12 11 11 12 13 14 14 15 15 15 13 11 11 11 11 10 10 10 10 9 8 8 8 9 9 9 10 11 12 13 15 15 16 15 14 13 13 14 14
15 15 14 12 13 14 13 12 11 11 11 11 10 10 10 9 10 11 9 8 5 6 11 13 12 8 7 8 9 10 10 11 12 12 12 14 14 13 13 13 13 14 13 13 13 12 12 11 11 11 11 12 12 12 12 12 11 10 10 9 9 8 7 7 7 6 5 6 5 5 6 6 7 7 8 10 11 13 14 15 15 14 13 13 13
15 16 14 12 14 14 12 12 12 10 11 11 11 11 9 8 10 11 8 6 5 8 13 13 10 7 7 9 10 10 11 12 12 13 14 15 15 14 14 14 13 13 11 11 11 10 9 9 8 8 8 9 10 10 10 10 9 8 8 7 7 6 5 5 5 5 4 4 5 5 5 4 5 5 6 7 8 10 12 14 14 14 12 12 12
16 16 13 13 15 14 12 12 11 10 10 11 11 11 9 8 9 8 7 8 7 11 15 12 10 7 9 14 14 13 14 13 13 15 16 16 15 14 14 13 12 12 11 11 10 9 8 7 6 6 6 7 8 8 8 8 7 7 6 5 4 4 4 5 6 6 6 5 7 7 6 5 5 5 4 5 7 7 10 12 12 13 12 11 11
17 16 13 13 14 12 12 12 12 11 10 11 11 9 9 9 8 6 8 9 8 13 16 12 10 9 11 15 15 14 14 14 14 16 18 18 17 15 13 12 12 11 11 11 11 9 8 7 6 6 6 7 7 7 6 6 6 6 5 5 5 5 6 7 8 8 8 8 9 10 9 8 7 7 6 6 6 6 7 9 11 11 11 10 10
17 15 13 12 11 12 14 13 13 12 10 10 10 8 9 9 8 7 9 9 8 13 16 14 13 11 12 13 13 14 15 15 15 15 17 18 18 16 14 13 13 13 13 12 11 10 9 8 7 7 7 7 7 7 6 6 6 6 6 6 7 8 8 8 8 8 9 9 10 11 10 10 9 8 8 7 7 7 7 8 9 9 9 10 10
16 15 14 11 10 14 15 13 13 12 11 10 9 8 9 9 9 9 11 10 10 15 18 17 15 13 13 13 13 15 16 15 14 14 15 16 18 18 16 14 14 14 14 12 11 10 9 8 7 7 8 8 8 8 9 8 8 9 9 10 10 10 8 7 8 9 9 8 9 9 8 8 7 6 6 6 7 8 8 9 9 8 9 9 9
15 14 14 12 11 14 14 13 13 12 11 12 10 9 10 12 11 12 14 14 15 17 18 18 17 15 15 15 13 13 14 14 14 14 15 14 16 17 16 16 15 14 13 12 11 10 9 8 7 8 8 9 10 11 11 11 11 12 12 12 11 9 8 7 9 9 9 9 8 8 7 6 6 6 6 5 6 7 9 11 10 9 9 10 11
15 14 13 13 12 12 14 14 13 11 11 11 11 10 11 12 11 12 14 17 20 18 18 21 21 18 15 15 14 12 11 12 12 13 13 13 14 16 16 16 16 14 12 11 10 11 11 9 8 8 8 9 12 13 14 14 14 13 12 11 10 9 9 9 10 9 10 9 9 9 8 9 10 11 10 8 9 10 13 14 12 10 11 13 14
16 15 14 14 13 12 15 15 13 12 11 11 11 10 12 12 11 13 13 16 20 20 23 21 17 16 15 12 10 9 10 10 11 11 11 12 14 15 15 15 15 14 12 11 11 12 12 10 9 8 9 11 14 15 16 16 15 13 11 10 9 9 10 10 10 10 10 10 10 11 11 12 14 14 13 13 15 16 17 16 14 13 13 14 14
18 18 17 15 12 13 16 15 14 14 13 13 12 12 13 13 12 14 15 16 18 22 23 15 14 18 15 8 4 4 6 7 8 9 10 12 14 15 14 14 14 13 12 12 13 13 13 11 9 9 10 14 16 16 15 15 13 11 10 9 9 10 10 11 11 11 11 12 12 12 13 15 16 15 17 19 20 20 19 16 15 14 14 13 12
19 19 18 15 13 15 17 16 16 15 14 14 14 14 14 14 13 15 18 19 18 21 16 11 18 20 10 4 4 3 2 4 6 7 8 11 13 14 13 12 13 12 12 13 13 14 14 12 10 10 12 14 15 14 13 12 11 10 10 10 11 11 11 11 11 12 12 13 13 13 14 16 17 17 19 21 20 19 17 16 15 14 13 12 11
18 18 18 18 16 16 16 17 17 15 14 15 15 15 15 15 15 15 18 19 20 19 13 12 20 18 9 7 6 2 2 5 7 6 6 9 10 12 11 11 13 13 13 14 13 13 14 13 12 13 13 13 13 12 11 11 10 10 11 12 13 13 12 12 12 12 12 13 13 14 15 17 18 18 19 19 18 17 16 15 14 13 12 11 10
17 16 17 18 18 16 15 16 16 15 14 14 14 15 15 16 15 15 16 18 20 18 14 15 17 12 10 10 4 4 9 11 6 3 5 7 7 10 11 12 14 15 15 14 13 14 15 15 15 15 14 13 12 11 11 10 10 10 12 13 14 13 13 12 12 12 12 13 14 14 16 17 18 18 18 18 17 16 15 13 11 11 10 10 9
18 16 16 18 18 17 16 15 15 15 14 14 14 13 14 15 15 15 15 16 18 19 17 17 15 10 10 7 3 9 20 16 7 5 5 4 6 9 10 12 15 15 14 14 15 15 16 16 17 16 14 13 12 11 11 11 12 12 13 13 13 13 14 13 13 12 12 13 14 14 15 16 16 16 16 15 14 13 12 10 10 10 10 10 10
19 17 18 18 18 17 16 15 15 16 16 15 15 13 12 14 15 14 14 14 15 18 19 19 16 12 9 7 7 15 21 14 12 13 6 3 5 6 9 12 13 14 13 15 16 16 16 18 18 16 14 13 11 10 11 13 13 13 12 11 11 12 13 14 13 13 13 13 13 14 14 14 15 15 14 13 13 12 11 11 11 11 11 11 11
20 19 19 19 18 17 16 16 15 16 15 14 15 14 12 14 16 15 13 14 13 15 19 19 18 16 12 11 14 18 15 10 15 16 9 7 5 4 8 9 10 13 12 15 17 16 17 19 18 15 13 13 12 10 11 14 14 12 11 10 11 11 12 12 12 13 13 13 13 13 13 14 14 14 14 13 12 12 11 11 11 11 11 11 12
20 19 19 18 17 16 17 17 16 15 14 14 16 15 12 14 16 16 14 14 13 13 16 17 17 17 15 15 17 17 13 9 12 14 12 8 6 6 10 10 8 10 11 16 19 17 17 17 16 14 12 13 13 12 13 14 14 12 11 11 11 11 11 11 12 12 12 12 13 12 12 13 13 13 14 13 13 13 12 12 12 11 11 11 12
20 19 19 18 17 15 15 17 16 15 14 15 15 15 13 14 16 17 16 15 15 14 16 16 15 16 15 16 19 19 15 12 14 18 15 9 7 7 10 12 10 11 15 18 18 18 18 16 15 14 11 11 12 13 14 15 14 13 12 12 12 11 11 11 11 11 12 12 12 12 11 12 12 12 12 13 13 13 13 13 12 12 11 11 11
21 20 19 18 17 14 14 16 15 13 14 14 14 14 14 15 17 18 17 16 14 15 17 17 16 17 15 14 18 18 15 15 19 20 18 17 15 10 11 13 9 10 18 18 15 16 16 15 15 14 12 9 11 14 15 15 15 15 14 13 12 11 11 11 11 11 12 12 12 12 12 11 11 12 12 12 12 12 12 12 11 11 11 11 11
21 21 20 19 18 17 16 16 15 13 13 15 15 14 15 16 17 17 16 16 15 15 17 18 17 17 16 14 15 14 13 15 19 18 18 22 21 14 13 15 10 11 17 17 15 15 14 17 17 16 13 9 10 15 16 16 16 16 14 13 12 12 12 12 12 12 12 12 12 12 12 12 11 11 11 11 11 11 11 11 11 10 10 11 11
23 23 21 20 20 19 18 16 16 14 14 16 16 14 15 15 16 16 15 15 15 14 15 15 15 16 16 15 15 14 13 15 17 17 20 25 24 19 15 12 11 13 15 16 17 15 15 20 21 17 14 10 10 16 17 17 17 16 14 13 13 13 12 13 13 13 13 12 12 12 11 11 11 11 10 10 10 10 10 10 10 10 10 10 10
24 23 21 20 20 19 18 16 16 15 14 15 15 15 15 15 14 14 14 14 15 15 14 14 15 14 16 16 15 14 13 14 16 17 22 26 26 27 22 12 8 10 11 13 16 17 19 21 20 18 15 11 12 16 17 17 17 16 15 14 15 14 13 13 13 13 13 12 11 11 11 10 10 10 10 9 9 9 9 9 8 8 8 8 9
24 22 20 20 20 19 18 16 16 15 14 15 16 16 16 15 15 14 14 14 14 16 15 14 15 13 15 16 15 15 13 14 16 17 20 23 24 29 28 18 11 7 6 8 10 14 21 22 19 17 16 12 13 17 17 17 17 16 16 15 16 16 15 14 13 12 12 11 10 10 10 10 9 9 8 8 8 8 7 7 7 7 7 7 7
23 22 20 20 20 20 18 17 16 14 15 16 16 16 15 15 15 15 14 13 12 15 16 15 15 13 15 16 15 15 14 14 17 17 17 20 22 27 27 25 21 11 4 6 6 10 20 23 20 17 16 13 14 17 18 17 17 16 16 17 17 17 16 14 13 12 11 11 10 9 9 9 9 8 8 7 7 6 6 6 5 5 5 5 5
23 22 21 21 20 20 19 17 16 15 14 14 13 14 15 15 13 13 13 12 11 13 14 14 16 14 15 16 15 15 14 15 17 17 17 18 22 26 24 24 27 20 10 7 6 13 21 22 20 20 18 15 15 17 18 17 17 17 17 18 18 17 16 14 13 12 11 10 9 9 8 8 8 7 7 6 6 5 5 4 4 4 4 4 4
23 22 21 21 20 19 19 17 16 16 14 13 12 13 14 14 13 13 13 11 11 12 13 12 14 14 14 15 16 16 14 14 16 17 19 18 19 24 22 20 23 23 20 13 6 13 25 23 20 20 20 17 16 17 18 17 17 17 18 19 19 18 16 14 13 12 11 10 8 8 7 6 6 6 5 5 4 4 4 3 3 4 4 4 4
21 22 22 20 20 19 19 18 17 16 14 13 13 12 12 12 12 12 13 13 12 12 13 12 11 13 14 14 15 15 13 14 16 17 19 19 19 22 22 19 16 15 21 20 10 11 23 26 23 21 20 18 16 17 18 18 18 17 18 19 19 18 17 15 13 12 11 10 9 8 6 5 5 4 3 3 2 2 2 2 3 3 4 4 5
21 21 21 20 20 18 18 18 17 15 14 13 13 12 12 12 10 10 12 13 12 12 13 12 11 13 14 12 13 14 13 13 15 16 17 18 19 18 19 21 16 9 17 25 18 13 18 23 24 21 20 19 17 18 19 20 20 19 19 19 19 19 17 15 15 13 12 11 10 9 8 6 6 5 4 4 3 2 2 1 2 3 4 4 5
21 20 20 21 20 17 17 19 18 15 13 13 12 12 12 11 10 10 10 11 11 12 13 12 12 13 14 13 13 14 12 12 14 16 16 17 18 17 18 22 16 8 17 27 23 17 18 22 25 23 22 21 18 18 20 21 22 20 20 20 19 19 18 16 16 15 13 13 12 11 11 10 9 8 8 7 7 6 5 5 5 5 5 6 6
21 19 19 19 19 16 17 20 18 14 13 12 11 12 11 10 11 9 8 10 10 11 12 11 11 12 13 14 15 15 13 13 15 16 16 15 16 17 18 20 14 8 18 27 24 20 21 22 25 26 25 23 19 17 19 20 20 20 20 19 18 18 19 18 18 18 17 16 15 15 14 13 13 12 11 11 11 10 9 9 8 8 8 8 8
19 18 17 16 16 16 18 19 16 14 14 11 10 13 12 10 10 7 7 9 10 11 10 9 10 11 12 13 14 15 15 14 15 15 16 15 16 18 17 16 13 9 16 26 25 23 24 23 24 27 27 24 20 18 18 19 20 20 20 19 18 17 18 19 19 20 19 18 18 18 17 16 15 15 14 14 14 13 13 12 12 12 12 11 11
18 19 17 15 15 15 16 16 14 14 15 12 11 13 10 8 9 8 8 8 8 8 6 7 11 11 10 10 12 16 16 14 14 15 17 16 15 18 17 15 16 13 16 25 25 23 27 27 25 26 26 23 20 19 21 21 21 21 21 20 19 18 18 19 20 20 19 18 19 20 20 20 19 18 17 17 16 16 16 16 15 15 14 14 14
19 19 17 15 14 14 15 15 13 15 15 12 12 12 10 8 8 8 9 8 7 7 5 7 12 11 9 10 12 14 14 13 13 14 16 16 16 17 17 17 17 14 15 24 26 24 27 28 26 25 26 25 22 21 23 24 23 24 24 23 23 22 21 21 22 21 20 20 20 21 23 23 23 22 20 19 19 18 18 18 18 18 18 17 16
20 18 16 15 14 14 15 15 14 16 16 14 13 12 11 8 7 8 9 8 8 7 7 10 11 9 8 10 11 12 11 10 11 13 14 16 16 16 18 19 15 13 18 25 25 24 26 25 23 25 27 25 22 22 23 25 25 24 25 26 26 26 25 25 25 25 24 25 24 24 25 25 25 24 22 21 21 20 21 21 21 20 20 19 18
18 17 17 16 16 17 18 18 17 17 17 15 14 13 11 8 7 8 8 7 8 10 11 11 9 6 6 9 10 11 10 9 11 11 11 13 14 14 16 16 12 14 21 24 22 23 25 23 20 22 26 26 24 22 21 23 27 26 26 28 28 28 27 26 27 27 28 29 28 28 28 28 28 27 25 24 23 23 22 22 22 22 21 20 20
18 17 17 19 20 21 20 19 17 16 15 14 14 13 11 9 8 8 6 5 6 8 10 11 8 6 6 7 9 10 9 8 10 9 8 10 12 11 11 12 11 14 20 21 22 22 21 22 20 19 22 24 25 24 21 23 27 28 28 29 29 28 28 29 30 31 32 32 31 31 31 30 30 29 28 27 26 24 23 22 22 22 21 20 20
20 18 18 20 20 20 19 17 15 14 13 12 12 12 11 10 9 7 6 5 3 3 7 9 9 8 7 6 8 9 8 7 7 7 7 8 10 9 9 10 10 12 14 14 17 17 14 18 20 18 19 22 25 26 25 24 25 26 28 31 31 29 28 27 28 31 33 34 33 34 34 32 32 31 31 30 28 26 24 23 22 21 20 19 19
21 20 21 22 21 19 17 15 14 13 12 11 10 10 10 10 9 7 5 5 4 3 4 6 10 11 10 8 8 9 10 8 7 8 9 9 9 8 9 10 9 9 8 7 8 8 7 9 12 13 14 17 20 24 26 26 24 22 23 26 30 31 28 24 22 25 30 33 33 34 34 33 33 34 34 32 30 28 26 24 22 20 20 19 19
22 22 22 21 20 18 16 14 13 12 11 10 9 8 8 9 9 8 6 5 4 3 2 3 10 13 12 10 9 9 9 8 7 7 9 9 8 6 6 7 6 6 5 3 2 2 2 3 3 4 5 6 9 12 17 20 21 20 19 21 24 28 28 25 22 22 24 27 29 33 34 34 34 36 36 33 32 30 27 24 23 21 20 20 19
23 23 22 21 19 17 15 14 13 12 10 9 7 6 7 7 7 9 9 8 7 7 7 6 10 14 13 13 12 10 9 8 7 6 6 6 6 5 3 3 3 3 4 5 5 4 4 4 4 4 3 3 3 4 6 9 13 18 21 23 24 24 25 24 25 26 24 23 26 32 34 34 34 36 37 34 33 31 28 24 23 22 21 21 20
23 22 21 20 18 16 15 14 12 11 10 9 7 6 6 7 6 7 9 10 10 10 12 13 12 12 12 13 14 13 11 9 8 7 6 5 5 5 3 3 3 3 4 5 7 8 9 10 11 11 10 9 9 9 8 9 11 14 17 20 21 22 23 25 27 29 28 26 26 28 30 32 35 36 36 35 34 33 29 24 23 23 23 23 21
22 21 19 18 18 16 15 13 12 12 11 9 8 7 6 6 5 6 8 10 11 11 12 14 14 14 12 12 14 12 10 9 8 7 6 5 5 4 3 2 2 3 3 4 6 8 9 11 12 12 12 12 13 13 14 15 16 17 17 18 18 19 21 22 25 27 29 28 27 26 24 23 27 32 34 33 32 31 27 23 23 25 26 24 22
21 20 19 18 17 17 16 13 13 14 13 11 10 10 10 9 7 7 10 12 14 14 14 14 15 16 14 13 13 11 9 9 8 7 7 6 6 5 4 2 1 2 3 3 5 7 9 10 11 12 13 13 13 14 15 16 17 17 18 18 18 18 19 19 21 22 20 16 14 14 12 10 10 16 20 20 21 23 23 22 24 26 25 24 22
21 21 20 19 18 17 16 14 13 14 14 12 11 11 11 11 11 11 13 15 16 16 16 15 14 15 15 13 11 10 9 9 8 6 6 6 5 5 4 2 1 1 3 4 5 7 8 10 11 13 14 15 16 16 16 16 17 18 18 18 17 17 16 14 13 11 12 13 12 10 14 16 15 16 16 15 17 21 22 23 25 26 24 23 22
21 20 20 20 19 18 17 16 15 15 15 14 12 10 10 11 12 14 15 17 18 17 15 15 13 13 13 12 11 10 9 8 6 5 3 2 1 2 1 2 2 3 4 5 6 7 7 8 9 11 13 14 15 16 17 17 18 19 20 19 18 18 18 17 14 13 16 21 20 15 16 21 20 19 18 16 17 22 23 22 24 26 24 21 21
20 19 19 20 20 19 18 18 17 16 16 15 12 11 10 9 10 11 13 16 19 18 15 14 14 14 13 12 12 11 10 9 7 6 5 4 4 5 6 6 7 8 9 11 12 13 14 14 14 14 15 15 16 18 19 20 21 21 22 22 23 25 25 25 24 18 15 20 24 20 19 21 21 22 21 14 11 17 21 22 23 23 23 22 22
Wind_Direction
172 174 175 175 168 165 160 155 155 152 157 163 155 155 168 168 160 163 172 179 201 193 179 161 176 183 187 147 121 126 131 129 120 105 88 85 102 126 140 129 119 114 109 106 105 107 107 107 108 113 120 119 115 111 109 106 102 99 97 96 94 94 93 90 90 88 86 83 80 79 78 77 77 77 79 78 73 69 68 67 68 72 74 71 64
171 177 179 175 171 172 167 171 178 168 165 176 181 179 179 180 174 168 182 193 174 175 172 163 179 188 188 161 131 137 148 151 134 109 91 96 113 128 133 125 118 113 111 108 106 108 111 113 111 111 111 108 107 104 103 103 103 103 103 102 100 97 94 92 90 88 86 83 79 77 76 74 74 74 76 77 76 75 73 68 66 72 77 72 67
171 183 189 184 181 177 174 181 184 178 177 186 199 194 181 184 181 179 192 187 153 148 170 178 161 164 175 161 143 150 162 159 137 121 106 113 124 130 128 122 118 116 116 113 111 109 107 107 107 108 107 106 106 106 107 107 108 108 106 103 98 93 90 89 88 88 86 84 81 77 75 75 73 72 72 71 71 73 75 75 71 73 79 76 71
177 184 187 184 178 169 167 174 172 177 180 180 187 182 173 179 182 182 188 189 171 132 153 156 138 145 167 161 147 159 165 152 144 139 127 129 134 137 132 123 121 121 121 119 115 108 103 105 106 108 110 111 112 112 113 114 114 111 106 100 94 91 91 90 86 83 82 82 81 79 77 76 74 72 70 68 68 68 70 74 75 76 78 80 78
182 178 176 177 175 164 161 171 173 175 177 177 178 177 173 171 183 187 184 191 181 122 133 132 125 141 172 168 154 162 165 154 156 152 140 139 141 145 139 128 127 127 125 123 123 121 122 123 118 116 116 116 118 119 118 117 114 110 106 104 99 98 96 91 84 78 76 77 79 82 80 76 75 73 69 66 65 67 67 67 70 73 77 79 81
186 179 175 176 176 169 166 174 179 176 177 180 177 178 174 170 191 193 183 188 176 127 129 123 124 150 176 173 163 165 163 160 166 163 152 147 146 147 142 139 139 136 134 132 132 133 133 130 127 127 125 124 125 125 124 121 118 112 108 105 103 101 94 87 86 84 79 73 68 77 83 77 77 78 76 74 69 68 69 67 64 66 74 79 81
190 188 180 172 168 170 174 175 179 178 177 180 177 177 173 172 194 197 181 171 158 129 122 125 144 168 161 150 155 165 165 166 173 170 164 156 151 150 147 147 148 147 146 140 135 131 126 126 128 130 133 137 137 133 131 131 130 122 114 106 101 99 88 77 85 97 89 67 56 63 80 79 77 81 82 86 84 79 76 74 66 61 67 77 80
190 188 185 181 166 163 175 175 180 183 181 181 179 177 171 172 191 195 164 148 150 128 117 130 155 161 150 141 147 160 163 169 174 170 169 166 159 158 156 151 148 151 152 145 139 131 123 118 114 113 122 139 149 150 148 146 144 139 133 122 105 94 87 80 85 98 92 75 68 71 81 77 76 82 82 95 99 92 82 79 73 62 60 71 80
189 186 184 187 171 166 180 180 181 182 181 181 180 182 170 173 192 179 153 156 163 135 121 132 146 146 146 138 144 157 159 167 171 167 167 169 167 166 165 156 148 148 149 150 147 139 128 117 112 106 103 119 139 149 151 149 150 149 145 137 116 102 102 98 92 92 87 83 83 84 85 83 81 80 77 93 110 110 94 85 82 74 64 69 82
189 186 181 177 171 184 191 183 181 180 179 179 180 182 161 166 187 160 154 172 173 147 135 138 141 140 138 129 138 152 157 167 169 165 165 168 171 172 169 160 151 146 147 152 151 142 130 121 122 115 103 105 116 125 129 133 136 134 133 128 115 109 109 107 96 92 92 91 91 91 92 91 88 85 79 82 93 111 116 100 90 86 76 73 82
188 185 182 174 177 197 194 180 183 181 178 180 180 182 160 158 172 149 147 161 159 149 142 139 138 135 129 127 136 142 150 164 164 158 158 165 172 175 171 160 154 150 150 154 150 143 134 126 126 117 109 106 108 116 121 123 122 121 121 117 113 112 110 105 97 99 101 95 93 96 98 96 91 89 85 83 88 102 120 115 98 88 81 78 84
190 189 186 183 195 204 191 178 185 183 181 183 179 182 169 158 159 145 139 146 150 149 147 142 132 120 114 118 128 133 143 159 160 154 156 162 168 173 170 159 156 156 155 155 150 140 130 125 122 115 113 114 116 120 120 120 120 116 114 113 113 114 110 102 99 100 99 92 90 89 87 86 77 69 67 83 106 107 115 117 105 89 84 86 91
193 193 188 191 205 205 187 179 185 186 186 185 176 175 168 160 158 148 141 145 147 149 153 145 127 117 112 108 114 121 135 153 155 155 161 162 163 168 165 159 161 161 158 157 150 138 128 122 116 111 113 117 119 122 120 119 118 115 113 113 114 112 106 102 99 97 95 87 81 80 77 72 67 63 64 81 109 113 112 114 105 91 89 91 93
191 191 187 192 201 193 182 182 186 187 187 183 180 177 172 169 165 154 146 148 150 151 151 144 133 133 128 111 103 108 119 137 141 143 152 155 158 161 159 159 162 160 156 153 151 142 133 126 116 109 116 123 123 124 124 121 120 119 117 117 114 110 106 101 98 94 91 84 79 79 76 74 73 72 78 90 105 110 110 108 101 91 89 89 88
192 191 189 189 196 190 180 181 186 186 186 182 178 179 176 176 174 162 152 147 152 158 154 148 147 142 132 121 120 112 110 120 129 134 144 152 157 158 159 160 158 156 154 148 148 146 140 137 131 123 127 130 129 130 128 125 125 124 123 120 114 109 104 99 96 92 88 85 85 84 78 80 83 82 89 98 104 108 109 105 99 91 86 85 86
195 191 191 189 195 196 185 183 188 186 187 185 176 175 176 175 176 170 159 149 152 165 169 170 162 149 132 120 135 143 137 129 130 130 146 157 159 159 161 161 155 154 154 147 145 147 147 148 146 141 138 136 135 133 130 128 129 129 126 121 115 109 104 99 96 93 92 91 90 87 84 88 92 91 96 104 107 108 108 104 99 94 89 86 88
194 188 193 194 193 198 195 190 192 188 187 188 181 179 179 177 177 176 171 161 159 170 179 176 169 162 149 138 136 153 156 145 142 127 141 155 158 161 161 160 154 147 147 146 144 148 154 156 152 147 142 139 138 136 133 132 132 131 128 122 116 111 106 103 101 100 98 97 95 91 89 93 98 98 101 107 109 108 107 103 100 96 93 91 91
188 188 197 199 194 198 203 200 195 187 185 187 182 182 183 181 181 181 180 174 169 170 169 165 170 174 169 162 188 205 157 150 155 122 131 145 156 164 162 157 152 145 143 145 143 148 156 156 151 146 141 142 145 141 138 137 135 134 130 124 119 113 109 105 104 104 102 99 98 97 96 99 103 104 106 110 111 110 109 105 102 99 96 95 95
185 195 203 202 196 196 201 204 198 187 183 183 179 182 189 183 181 183 180 179 180 175 169 168 171 177 178 174 228 186 160 154 164 148 134 144 156 165 167 160 154 150 149 150 149 151 154 154 150 148 149 151 150 142 138 138 135 134 130 127 125 123 120 117 113 110 107 104 102 103 104 107 110 111 113 116 116 115 112 107 101 99 97 95 94
187 197 204 204 201 197 196 200 198 189 186 188 183 183 191 186 180 185 181 180 189 184 174 176 178 175 171 156 151 163 160 159 161 152 134 136 153 164 172 168 165 162 158 157 157 154 151 154 155 155 158 161 157 147 143 139 133 131 130 129 131 132 132 130 126 119 113 110 108 108 110 112 114 116 118 119 118 115 109 105 101 98 97 94 92
192 195 201 203 200 193 189 190 192 190 191 194 190 183 189 189 180 182 181 175 185 189 180 181 184 177 167 151 145 154 159 160 158 151 141 147 153 163 171 173 177 176 170 168 167 157 148 152 157 160 164 169 170 164 152 143 136 133 132 134 136 136 136 133 128 123 117 114 111 110 111 113 115 117 118 118 116 113 109 106 103 99 97 94 91
192 192 195 194 190 184 183 185 184 185 190 192 189 184 186 188 180 178 178 169 172 185 182 180 182 179 172 161 156 157 157 155 159 155 146 147 148 153 167 174 174 173 173 173 172 163 154 155 158 162 167 171 174 171 158 148 141 138 138 139 139 136 133 131 127 123 119 117 115 113 112 112 114 114 114 114 112 110 107 104 102 98 96 94 92
188 186 183 179 174 172 178 183 181 182 187 190 189 186 183 184 183 178 177 174 173 180 181 178 178 180 180 174 170 169 166 169 172 163 151 146 144 148 168 173 166 160 158 160 164 162 160 163 165 167 168 167 172 170 159 151 144 142 142 141 138 135 132 129 128 127 124 122 120 119 118 115 114 112 111 111 110 108 106 104 101 97 93 90 88
181 178 173 169 165 161 167 174 173 174 180 182 182 181 178 180 181 178 178 181 180 180 181 182 183 184 184 181 178 179 178 176 173 169 166 160 153 151 165 166 161 160 158 154 158 164 166 170 173 175 173 166 170 170 161 155 150 145 145 143 140 137 135 132 131 130 128 127 126 125 125 122 119 118 116 115 114 112 110 108 105 101 97 94 90
175 171 163 162 163 161 162 165 162 163 169 169 170 174 177 178 179 180 181 183 187 187 183 183 190 191 185 175 175 183 187 179 172 175 176 164 153 151 162 163 156 159 165 163 163 169 172 176 179 179 178 173 172 171 165 158 154 151 149 147 145 143 140 137 134 131 129 128 128 126 125 124 122 120 119 116 114 111 108 106 102 100 98 96 94
169 162 156 159 163 162 161 162 161 160 162 165 169 173 176 176 178 182 183 183 188 192 187 183 187 189 179 170 175 185 184 177 174 175 174 166 158 154 156 159 156 159 171 176 175 171 165 173 181 181 181 185 178 174 171 163 157 155 155 152 149 147 144 141 137 132 129 124 121 120 118 119 118 117 115 113 111 109 106 102 99 96 91 88 87
162 155 154 160 161 158 158 159 162 162 160 164 169 169 171 173 175 179 181 181 183 187 188 184 182 183 179 175 180 188 183 176 177 177 177 174 167 162 159 154 154 165 176 182 183 174 160 164 177 184 187 192 187 180 174 168 162 158 160 157 153 152 150 147 142 134 128 123 119 117 115 113 112 111 110 109 108 105 103 100 96 92 85 79 75
156 152 154 158 154 153 155 157 161 164 162 163 163 164 168 169 172 177 181 181 180 182 184 182 180 182 182 181 185 191 189 181 178 177 181 183 176 168 167 164 160 166 176 178 182 174 164 161 168 184 194 193 189 185 178 173 168 164 164 163 159 157 156 152 145 136 129 125 123 119 115 112 108 107 105 105 104 101 99 96 91 86 79 73 68
154 154 155 154 150 151 153 153 156 158 159 161 162 166 168 167 173 182 185 185 182 181 182 180 182 186 186 186 191 192 188 182 179 176 178 183 180 174 174 172 166 161 161 178 179 167 166 167 167 179 192 191 185 185 183 179 174 170 169 168 166 163 162 158 150 143 138 133 130 124 117 113 107 104 101 98 96 93 91 90 86 82 74 67 60
156 156 154 150 150 152 152 149 148 147 150 156 160 165 167 166 172 178 180 182 180 179 182 180 182 191 191 187 191 193 189 184 182 180 177 180 182 182 181 177 173 171 165 164 177 168 165 172 178 181 187 190 188 187 186 184 180 176 175 173 173 171 168 165 159 153 152 146 141 134 126 121 114 107 101 94 90 86 80 77 71 64 59 52 44
157 156 151 148 150 152 150 147 146 147 149 156 159 161 165 168 171 172 171 175 177 178 184 185 187 197 196 187 190 195 194 192 187 184 185 184 185 186 188 187 182 182 176 161 156 174 171 174 182 187 191 192 191 190 188 188 187 182 181 180 179 180 178 175 171 170 169 165 160 155 147 141 132 122 114 102 90 80 68 56 44 32 24 19 13
152 152 149 148 149 149 149 147 147 149 150 155 156 156 161 165 168 170 170 175 180 179 183 189 193 200 200 194 197 198 197 198 193 190 192 191 190 192 196 199 195 194 186 170 149 171 179 180 182 186 192 191 190 191 189 191 193 189 189 188 187 189 189 186 185 185 186 186 185 184 182 177 170 159 153 142 126 108 69 42 23 6 357 351 346
149 148 147 148 147 146 147 147 147 147 148 151 152 154 159 160 164 168 169 177 184 180 180 187 193 198 199 199 203 203 201 199 193 195 198 197 198 197 198 204 207 208 189 173 157 157 174 183 184 185 191 191 188 194 196 195 194 194 194 192 195 200 201 199 200 201 204 205 207 210 213 216 218 219 219 224 231 234 248 279 305 318 320 320 322
146 145 146 150 151 148 145 145 145 143 143 145 148 153 154 157 165 169 168 172 178 175 176 183 193 198 198 200 203 203 205 201 197 203 202 198 202 198 195 205 212 209 188 177 163 156 163 175 181 182 188 192 191 197 200 198 196 197 197 195 200 208 214 217 217 218 221 224 228 231 233 237 240 242 246 248 251 255 258 260 267 275 281 288 296
144 145 146 150 155 154 150 147 145 142 143 146 152 154 145 143 158 171 177 179 180 177 173 177 189 194 194 200 200 197 202 202 200 206 201 196 202 196 192 203 208 199 189 182 170 162 162 170 178 181 184 191 199 202 201 200 198 198 200 202 205 211 219 228 232 234 236 239 244 244 242 244 245 247 253 256 259 261 261 261 263 267 271 275 281
145 146 145 144 145 149 151 148 144 144 148 146 147 150 145 144 157 164 166 174 179 176 173 183 192 189 190 199 195 190 195 197 196 201 195 192 198 198 196 198 195 196 192 186 180 174 169 169 179 186 188 191 201 205 201 200 201 203 206 210 213 218 224 231 238 243 246 248 248 245 243 245 245 247 252 256 260 263 264 264 264 265 268 271 274
144 142 144 145 141 142 146 146 144 147 149 144 139 144 144 144 155 156 145 148 158 159 161 185 189 183 183 191 188 189 196 197 196 197 195 193 194 198 202 193 193 209 199 187 186 183 177 175 179 187 191 191 198 205 205 203 202 205 209 213 219 224 229 235 242 247 248 245 242 241 243 245 246 248 251 255 259 262 264 265 265 266 267 268 270
140 140 143 144 143 143 145 148 150 148 146 144 143 149 151 138 135 150 155 155 157 149 138 160 172 174 173 175 182 192 200 202 202 202 201 200 194 196 199 190 197 219 204 188 190 188 181 180 180 185 190 192 195 202 209 210 205 204 208 214 222 228 232 236 239 243 245 243 240 241 244 246 245 246 250 253 257 260 264 265 265 266 267 267 267
135 140 141 140 144 148 147 143 143 142 137 132 130 140 152 140 115 123 143 149 147 143 136 140 151 162 169 173 180 189 194 201 208 207 205 206 202 200 199 195 209 228 205 191 190 185 181 180 179 184 190 194 196 200 209 214 212 211 211 212 217 225 232 237 238 239 241 242 244 246 246 246 246 246 249 253 255 259 263 265 266 266 266 266 265
136 140 140 140 139 137 134 126 124 128 127 121 116 122 137 138 119 119 131 129 120 125 132 134 139 158 176 181 184 185 188 198 205 203 204 207 206 204 203 210 228 218 193 187 187 185 186 186 182 187 194 199 202 203 205 205 206 212 216 215 218 222 226 231 236 238 240 241 243 245 245 243 241 241 243 247 253 257 260 263 264 264 264 265 264
136 134 133 135 130 124 121 118 117 118 116 113 107 109 119 124 122 128 139 131 111 121 136 136 136 152 163 179 187 182 180 188 195 196 199 201 201 203 209 222 225 192 175 178 185 186 191 195 193 191 193 199 204 207 205 201 204 216 221 219 222 225 224 227 233 237 240 241 241 241 242 241 239 240 242 246 252 256 257 259 260 261 262 262 262
135 133 131 130 127 121 118 116 115 112 111 112 107 106 110 113 119 130 142 138 120 137 154 147 143 144 139 149 169 169 161 157 168 181 185 185 189 193 192 194 190 171 158 163 175 178 187 201 206 202 196 199 206 210 212 211 214 222 223 220 224 230 229 227 233 237 238 239 240 240 242 242 239 240 243 247 251 252 253 256 258 259 261 261 260
133 133 129 125 122 120 119 117 115 113 113 113 112 113 112 109 115 125 131 128 117 122 154 158 154 147 136 133 148 160 160 147 139 158 172 174 176 173 164 161 163 162 153 143 151 159 168 187 203 206 203 207 212 214 219 221 221 225 226 224 227 231 228 227 232 236 236 238 238 239 242 243 240 240 242 247 250 250 251 256 259 259 260 258 257
128 127 124 121 119 118 118 117 113 113 113 113 118 123 122 118 112 108 112 115 104 91 88 159 164 154 137 132 142 151 161 161 152 160 172 176 175 166 149 151 156 163 172 174 168 170 161 157 181 194 195 214 225 225 229 231 234 241 246 243 237 232 229 227 229 233 238 240 237 237 242 245 244 242 242 245 248 248 251 257 258 256 257 256 254
123 120 117 116 114 113 115 113 107 107 109 112 120 129 137 140 120 99 97 95 81 66 61 94 155 161 145 135 138 137 147 166 174 175 176 178 183 185 176 170 175 188 211 232 245 257 271 279 283 280 271 276 280 269 259 256 253 250 252 255 252 242 235 234 237 244 249 245 235 233 238 243 245 243 243 248 251 249 250 254 253 253 254 251 249
116 113 111 110 107 106 108 110 110 109 104 102 111 124 140 154 143 113 101 90 76 70 76 89 114 136 138 139 141 137 140 151 159 163 164 170 181 191 201 210 225 237 244 258 265 271 279 284 287 287 286 287 286 276 273 281 276 263 259 263 264 257 252 252 256 259 260 257 248 237 234 240 242 240 242 248 251 249 250 250 251 255 256 251 244
109 107 108 108 106 104 104 109 112 108 97 93 97 103 115 134 147 133 108 88 80 85 91 95 101 108 121 138 142 138 136 135 136 142 149 163 173 171 171 195 242 256 263 280 283 281 283 285 287 288 288 290 288 281 279 281 281 278 275 274 273 273 270 267 266 264 262 262 256 242 236 244 241 237 241 247 249 250 250 248 249 254 255 253 248
106 107 107 107 106 104 101 104 106 99 89 87 89 90 96 106 121 125 106 89 87 90 89 93 103 108 114 126 132 131 129 123 119 122 132 148 161 158 151 157 199 247 249 255 264 268 270 272 274 277 279 282 284 283 283 283 282 282 280 277 276 277 277 272 268 266 267 273 272 257 262 283 260 242 249 254 253 256 257 254 251 249 248 251 251
109 110 108 105 105 104 99 97 98 94 84 77 80 86 88 92 102 109 103 94 89 86 84 87 98 105 103 103 109 113 114 106 97 103 120 138 151 154 156 154 152 219 240 240 243 250 258 263 265 266 268 272 277 278 279 280 284 288 290 293 292 290 293 290 283 286 292 295 297 288 279 277 265 252 254 254 255 261 262 257 250 243 242 247 248
110 110 110 107 102 99 96 91 89 88 82 72 72 79 81 84 92 96 98 97 91 85 84 86 92 97 95 89 86 88 90 87 81 80 86 95 99 75 14 338 328 309 299 292 280 271 269 269 270 271 271 273 278 282 284 286 292 298 303 308 308 304 303 298 291 297 298 288 285 278 263 261 261 259 258 259 264 267 262 253 245 240 238 239 237
112 111 110 105 97 91 89 86 81 78 76 70 65 68 72 79 85 87 90 92 88 83 83 87 89 88 83 75 69 67 65 63 59 53 45 33 23 15 0 344 337 329 322 318 311 303 298 295 294 294 293 292 294 296 297 297 300 306 310 312 309 303 298 292 289 292 294 289 288 281 262 258 263 264 259 254 262 267 260 248 240 237 235 231 224
Height
833 833 834 834 834 835 836 837 838 838 839 840 841 842 844 846 847 848 849 850 851 852 853 854 856 856 857 858 858 857 856 855 856 858 856 854 856 861 864 864 865 864 864 864 864 865 865 864 864 864 863 862 862 862 862 862 862 863 863 863 863 863 863 863 863 863 863 863 862 862 862 862 862 862 861 861 861 861 861 861 861 860 860 860 860
833 834 835 835 835 835 836 837 838 838 839 840 841 843 844 846 846 848 850 851 851 852 853 854 855 856 857 857 858 856 855 856 857 858 857 856 858 861 864 864 865 865 865 864 865 865 865 865 865 864 864 863 863 863 863 863 863 864 864 864 864 864 865 865 865 864 864 864 864 863 863 863 863 862 862 862 862 862 862 862 861 861 861 861 861
833 834 835 836 835 835 836 837 838 839 839 840 842 843 844 845 847 848 850 850 851 852 853 854 855 855 856 856 857 857 857 857 858 858 858 858 859 862 863 864 865 865 865 865 865 865 866 866 865 865 864 864 864 864 864 864 864 865 865 865 866 866 866 866 866 866 866 865 865 865 864 864 864 864 863 863 862 862 862 862 862 862 862 862 862
833 834 835 836 836 836 837 838 839 839 840 841 842 843 844 845 846 847 849 850 851 852 853 854 854 854 855 856 856 857 858 858 858 858 858 858 861 863 863 864 865 865 865 865 865 865 866 866 866 865 865 865 865 865 865 865 865 866 867 867 867 867 868 868 868 867 867 866 866 866 866 865 865 865 864 864 863 863 863 863 863 863 863 863 863
833 834 835 836 836 836 836 837 838 839 840 841 842 843 844 845 846 846 848 849 851 853 854 854 853 854 854 854 856 858 859 859 859 858 858 859 861 862 863 864 864 865 865 865 866 866 866 866 866 866 866 866 866 866 866 866 866 867 867 867 868 868 868 869 868 868 867 867 867 867 866 866 866 866 865 865 864 864 863 863 863 863 863 863 863
833 834 835 836 835 836 836 837 838 838 839 840 842 843 844 845 845 846 848 849 850 852 853 853 853 853 854 854 855 858 859 859 859 859 859 860 862 863 863 864 864 864 865 865 866 866 866 866 866 866 867 867 867 867 867 867 867 867 867 868 868 869 869 869 869 868 868 867 867 867 867 866 866 866 866 865 865 865 864 864 864 864 864 864 864
832 833 834 835 834 835 836 837 837 838 839 840 842 843 844 845 845 846 848 848 850 852 853 853 853 853 854 856 857 858 859 859 859 860 860 861 862 863 863 863 864 864 864 865 866 866 867 867 867 867 867 867 867 867 868 868 868 867 868 868 868 869 869 869 869 869 868 868 867 867 867 867 867 866 866 866 865 865 865 865 865 865 865 864 864
830 832 833 833 832 834 836 837 838 839 839 840 841 843 844 845 844 846 847 848 849 851 852 852 852 853 855 857 858 859 859 859 860 860 861 862 863 863 863 864 864 864 864 865 866 866 866 867 867 867 867 867 867 868 868 868 868 868 868 868 868 869 869 869 869 869 869 868 868 867 867 867 867 866 866 866 866 866 866 866 866 866 866 865 865
829 830 832 832 831 833 837 837 838 838 839 840 841 842 844 844 844 846 848 848 849 851 853 852 852 854 855 857 859 860 860 860 860 860 861 862 863 863 864 863 863 864 864 865 866 866 866 866 867 867 867 867 867 868 868 868 868 868 868 869 869 869 869 870 869 869 869 869 868 868 868 867 867 867 866 866 866 866 866 867 867 867 867 866 866
827 829 830 831 830 834 837 837 837 838 839 839 840 842 843 843 843 846 848 848 848 851 852 852 853 854 855 857 858 860 861 861 861 861 862 862 862 863 863 863 863 863 864 865 866 866 866 866 867 867 867 867 867 867 867 868 868 868 869 869 869 869 870 870 870 870 870 869 869 869 868 868 868 867 866 866 866 866 867 867 867 867 867 867 867
826 827 828 829 831 835 837 836 837 837 838 839 840 841 842 843 843 845 848 848 849 850 851 852 853 855 856 857 859 860 861 861 861 861 862 861 862 863 863 863 864 864 864 865 866 866 866 866 866 867 867 867 867 867 867 868 868 869 869 869 870 870 870 870 870 870 870 870 870 869 869 869 868 868 867 866 866 866 867 868 868 868 868 868 868
824 825 826 828 833 836 835 835 836 836 837 838 840 840 842 843 843 844 846 847 849 849 850 851 852 855 857 858 860 861 861 861 862 862 862 862 862 863 863 864 864 864 865 865 866 866 866 867 867 867 867 867 867 867 868 868 869 869 870 870 870 871 871 871 871 871 871 871 870 870 869 869 868 868 867 867 866 867 867 868 869 869 869 869 868
822 824 825 829 833 835 834 834 835 835 837 838 839 840 841 842 842 843 845 846 848 849 850 850 852 855 858 859 860 861 862 862 862 862 862 862 863 863 863 863 864 864 865 866 866 866 867 867 867 867 867 867 867 868 868 869 869 870 870 871 871 872 871 871 871 871 871 871 871 870 870 869 869 868 867 867 867 867 868 869 870 870 870 870 870
822 824 827 829 832 833 833 834 834 835 836 838 839 840 841 841 841 843 844 845 847 848 849 850 852 854 856 859 861 862 862 862 862 862 862 862 863 863 863 864 864 864 865 866 866 866 867 867 868 868 867 868 868 868 869 869 870 870 871 872 872 872 872 872 872 872 872 871 871 871 870 870 870 869 868 867 867 868 869 870 871 871 871 871 871
823 825 827 829 830 831 832 833 833 834 836 837 839 840 841 841 841 842 844 845 846 847 848 849 851 853 855 858 860 861 863 863 863 863 863 863 863 863 864 864 865 865 865 866 866 867 867 868 868 868 868 868 868 869 869 870 870 871 871 872 872 873 872 872 872 872 872 872 872 872 871 871 871 870 869 869 869 870 870 871 871 872 872 872 872
823 825 827 828 829 830 831 832 833 834 835 837 838 839 840 841 841 842 843 844 845 847 848 849 849 851 854 857 859 861 863 863 863 863 863 863 864 864 864 865 865 865 865 865 866 867 868 868 869 869 869 869 869 870 870 871 871 871 872 872 873 873 873 873 873 873 873 873 873 872 872 872 872 871 871 871 871 871 872 872 872 873 873 873 872
823 825 825 826 827 830 831 831 832 833 834 836 837 838 839 840 841 842 842 843 844 845 847 849 849 849 850 853 857 860 861 862 862 863 864 864 864 865 865 865 865 865 865 866 866 867 868 868 869 870 870 870 870 871 871 871 872 872 872 873 873 874 874 874 874 874 874 874 874 873 873 872 872 873 873 873 873 873 873 873 874 874 873 873 873
822 822 823 824 825 828 831 832 832 832 834 835 836 837 839 840 840 841 842 842 843 844 846 848 849 850 849 850 852 853 855 858 861 863 864 864 864 865 865 865 865 866 866 866 867 867 868 869 869 870 870 871 871 871 872 872 872 873 873 874 874 874 874 875 875 875 875 875 874 874 873 873 873 874 874 874 874 874 874 874 874 874 874 874 873
820 820 821 823 824 825 828 831 832 832 833 834 835 836 838 839 840 841 841 842 842 843 845 847 848 849 849 849 849 848 850 854 857 859 862 864 864 864 865 865 865 866 866 867 867 868 868 869 870 870 871 871 872 872 872 872 873 873 874 874 874 874 875 875 875 875 875 875 875 875 875 874 874 874 875 875 875 875 875 875 875 875 875 874 874
818 818 819 821 823 824 825 829 831 831 832 833 834 836 837 838 840 841 841 841 841 842 844 845 846 847 848 849 848 849 850 851 853 854 858 862 864 864 864 865 865 866 867 868 868 868 868 869 870 870 871 872 872 872 873 873 873 874 874 875 875 875 875 875 876 876 876 876 875 876 876 875 875 875 875 875 875 876 876 876 876 876 876 875 875
816 816 818 819 821 823 824 827 829 830 831 832 834 835 836 837 839 840 840 840 841 842 843 844 845 846 847 848 848 850 851 851 853 853 855 858 862 863 863 864 865 866 867 868 868 869 869 869 870 871 871 872 872 873 873 873 874 874 875 875 875 876 875 876 876 876 876 876 876 876 877 876 876 876 876 876 876 876 876 877 877 877 877 877 876
814 815 816 817 819 821 823 825 827 828 830 831 832 834 835 836 837 838 839 840 841 842 843 844 845 845 846 846 847 849 850 851 852 853 854 856 859 861 862 863 864 865 866 867 868 869 869 869 870 871 872 872 873 873 873 874 874 875 875 876 876 876 876 876 876 876 876 876 877 877 877 877 877 877 877 877 877 877 877 877 878 878 878 877 877
812 813 814 815 817 819 821 823 825 826 828 830 831 832 834 835 836 837 838 839 840 841 843 843 844 845 845 846 846 846 848 849 850 851 852 854 856 859 861 862 863 864 866 867 868 869 869 869 870 871 872 872 873 873 874 874 874 875 876 876 877 877 877 877 877 877 877 877 877 878 878 878 878 878 878 878 878 878 878 878 878 878 878 878 877
810 810 812 813 815 817 819 822 823 824 826 829 830 831 832 834 835 837 838 839 840 841 842 843 843 844 845 845 846 846 847 848 848 849 850 851 853 857 860 861 863 865 866 867 868 869 869 870 870 871 872 872 873 873 874 874 874 875 876 876 877 877 877 877 877 877 877 878 878 878 879 879 878 878 878 878 878 878 879 879 879 879 879 879 878
807 808 810 811 813 815 818 820 822 823 825 827 828 830 832 833 834 836 837 838 839 840 841 842 843 843 844 845 846 846 847 848 848 849 850 851 852 855 858 860 862 864 866 867 868 869 870 870 870 871 871 872 873 873 874 874 875 875 876 877 877 878 878 878 878 878 878 878 878 878 879 879 879 879 879 879 879 879 879 879 879 880 879 879 879
805 807 808 810 812 814 817 819 821 823 824 826 828 830 831 832 834 835 836 838 839 840 841 842 842 843 844 845 845 846 847 847 848 848 849 850 851 853 857 860 862 864 865 867 868 868 869 869 869 870 871 872 872 873 873 874 874 875 876 876 877 878 878 879 879 879 879 879 879 879 879 879 879 879 879 879 879 879 880 880 880 880 880 880 879
804 806 807 809 811 813 816 818 820 822 823 825 827 829 830 832 833 834 835 837 838 839 840 841 842 843 844 845 845 846 847 847 848 848 848 848 849 851 853 857 862 864 865 866 867 868 868 869 869 869 870 871 871 872 873 874 874 875 875 876 877 878 878 879 879 879 879 879 880 880 880 880 880 880 880 880 880 880 880 880 880 880 880 880 880
803 805 806 808 810 812 815 817 819 821 822 824 826 828 829 831 832 833 834 836 837 838 839 840 840 841 843 844 845 845 846 847 847 848 848 848 849 850 852 854 857 862 865 865 866 867 867 867 869 869 869 870 871 872 873 873 874 874 875 876 876 877 878 879 879 879 879 880 880 880 880 880 880 881 881 881 881 880 880 880 880 880 880 880 880
803 804 806 807 809 811 813 816 818 820 821 823 825 827 829 830 831 832 833 835 836 837 838 839 839 840 842 843 844 844 845 846 847 847 848 849 849 850 852 853 854 857 861 863 864 864 865 865 866 868 869 869 870 871 872 873 874 874 875 876 876 877 878 879 879 879 880 880 880 881 881 881 881 881 881 881 881 881 881 881 881 880 880 880 880
802 803 805 806 808 810 813 815 817 819 821 823 825 827 828 829 831 832 833 834 835 836 838 838 839 840 841 842 843 843 844 845 846 847 847 849 849 850 852 853 853 853 856 859 861 862 863 864 864 865 867 869 869 870 872 873 873 874 874 875 876 877 878 879 879 880 880 881 881 881 881 881 881 881 881 881 881 881 881 881 881 880 880 880 879
801 803 804 805 808 810 812 815 817 819 821 823 825 826 827 829 830 831 832 833 834 835 837 837 838 839 840 841 842 842 843 844 845 846 847 848 849 850 852 853 853 853 853 856 859 860 860 862 863 863 865 867 869 870 871 872 873 873 874 875 876 877 878 879 879 880 880 881 881 881 881 881 881 881 881 881 881 881 881 880 880 880 880 879 879
801 802 803 805 807 810 812 814 817 819 821 823 824 825 827 828 829 830 831 832 833 834 835 836 837 838 839 840 841 841 842 843 844 845 846 847 848 849 851 852 852 853 853 854 856 858 859 859 861 863 864 866 868 869 870 872 872 873 874 875 876 877 878 878 879 879 880 880 881 881 881 881 881 881 881 881 881 881 880 880 879 879 879 879 878
801 802 803 804 807 809 812 814 817 819 821 822 824 825 826 827 828 829 830 831 832 833 834 835 836 837 838 839 840 840 841 842 843 844 844 845 846 848 849 850 851 852 852 852 854 857 859 859 860 862 863 865 867 868 869 870 871 872 873 874 876 876 877 878 878 879 879 880 880 880 880 881 880 880 880 880 880 880 880 879 879 878 878 878 877
800 802 803 804 807 809 811 814 816 818 820 822 823 824 825 826 827 828 829 830 831 832 833 834 835 837 838 839 839 840 841 842 843 843 844 844 845 846 847 848 849 850 850 851 852 855 857 859 860 861 863 864 865 867 868 869 870 871 872 873 874 876 877 877 878 878 878 879 879 879 879 879 879 879 879 879 879 879 879 878 878 877 877 877 877
800 802 803 805 807 809 811 814 816 818 820 821 822 823 824 825 826 827 828 829 830 831 832 833 834 835 837 837 838 838 840 842 842 842 843 844 844 845 846 847 848 849 850 850 851 853 855 858 859 860 861 863 864 865 866 868 869 870 871 872 873 874 875 876 876 877 877 877 877 878 878 878 878 878 878 878 878 878 878 877 877 876 876 876 875
800 802 803 805 807 809 811 814 816 817 819 820 821 822 823 825 826 827 828 829 830 831 831 832 833 834 835 836 836 838 839 841 841 842 842 843 843 844 845 846 847 848 850 850 851 852 854 856 858 858 860 861 863 864 865 867 869 870 870 871 872 873 874 874 875 875 875 876 876 876 876 876 876 876 876 876 876 876 876 875 875 875 874 874 874
800 802 804 806 808 810 812 814 816 817 819 820 821 822 823 824 825 827 827 828 829 830 831 832 832 833 834 835 836 837 839 839 840 841 842 842 843 843 845 846 847 848 849 850 850 851 852 854 856 858 859 861 862 863 864 866 868 869 870 870 870 871 872 872 872 872 873 873 873 874 874 874 874 874 874 874 874 874 874 873 873 872 872 872 871
800 802 805 807 809 810 812 813 815 817 818 819 820 821 823 824 825 826 827 828 829 830 831 831 832 833 834 835 835 836 837 838 839 840 841 842 842 843 844 846 846 847 848 849 849 850 851 852 855 857 859 860 861 862 863 864 865 867 868 869 869 869 869 869 869 870 870 870 870 871 871 871 871 871 871 871 871 871 871 870 870 870 870 869 869
801 803 805 807 809 810 812 813 815 816 817 819 820 821 823 824 825 826 827 828 829 830 830 831 832 833 834 834 835 836 837 837 838 839 840 841 842 843 844 845 846 847 847 848 849 850 851 853 854 856 857 859 860 861 861 862 864 865 865 866 866 866 867 866 866 867 867 867 867 867 868 868 868 868 869 869 868 868 868 868 867 867 867 867 866
803 805 806 808 809 810 811 813 815 817 817 819 820 822 823 824 825 826 827 828 829 830 831 831 832 833 834 834 834 835 836 837 838 839 839 840 841 843 844 845 846 846 846 847 848 850 851 852 854 855 856 857 859 859 860 861 863 863 862 863 862 862 863 862 862 863 863 863 864 864 864 864 865 865 865 865 865 865 865 865 865 865 864 864 864
803 805 806 808 809 810 812 813 815 817 818 819 821 822 823 824 825 826 827 828 829 830 831 831 832 833 833 834 834 835 836 836 837 838 839 840 841 843 844 845 845 845 846 846 847 849 850 851 852 853 854 855 856 858 858 859 859 859 859 860 859 859 860 860 859 859 859 860 860 860 860 861 861 862 862 862 862 862 863 862 862 862 862 861 861
803 805 806 808 809 810 812 814 816 817 818 820 821 822 824 825 826 827 828 828 829 830 830 831 832 832 833 834 834 835 836 836 837 837 838 840 841 843 844 844 844 844 845 846 847 848 850 851 852 852 853 854 854 855 856 856 856 855 856 857 857 857 858 858 857 857 857 857 857 857 857 857 858 858 858 858 858 859 859 859 859 859 859 859 859
804 805 807 808 809 811 813 815 816 818 819 821 822 823 824 826 827 827 828 829 829 830 830 830 831 832 833 834 834 835 836 837 837 838 839 840 841 843 843 843 843 844 845 846 847 848 849 850 851 852 852 852 853 853 853 854 854 854 854 855 854 854 855 855 855 854 854 854 854 853 853 854 854 854 853 854 854 855 855 855 855 856 856 856 857
805 806 807 809 810 812 814 815 817 819 820 821 822 824 825 826 827 828 829 829 830 830 830 830 831 831 832 833 834 835 836 837 838 839 839 840 841 842 842 843 843 844 845 846 847 848 848 849 850 851 851 851 852 852 852 852 853 853 853 853 852 852 852 852 852 850 850 851 851 850 849 850 850 848 848 849 850 851 852 852 853 853 853 853 854
805 807 808 809 811 813 814 816 817 819 820 822 823 824 825 827 828 829 829 830 830 830 830 830 831 831 832 833 834 835 836 837 838 839 840 840 841 841 842 843 844 844 845 846 847 847 848 848 849 849 850 850 850 850 851 851 851 851 850 850 850 849 849 849 848 847 847 847 847 846 844 845 846 844 844 846 846 847 848 849 849 850 849 849 850
806 807 809 810 812 814 815 816 818 819 821 822 823 824 826 827 828 829 830 830 831 831 831 830 831 832 833 834 835 835 836 837 838 839 839 840 841 842 842 843 844 844 845 846 846 846 847 847 848 848 848 849 849 849 849 849 849 849 848 848 847 847 846 845 845 845 845 844 843 842 840 840 842 841 840 842 842 842 845 847 847 846 845 845 845
807 809 811 812 813 815 816 818 819 820 822 823 824 825 826 827 828 829 830 830 831 831 831 832 832 833 834 835 835 836 837 837 838 838 839 840 840 841 842 843 844 844 844 845 845 845 846 846 846 846 847 847 847 847 848 848 847 847 847 846 846 845 844 843 842 842 843 843 842 840 838 838 839 839 838 840 841 841 843 845 845 844 843 842 843
809 810 812 813 815 816 818 819 820 821 823 824 824 825 826 827 828 829 830 830 830 831 832 832 833 834 835 835 836 836 837 837 838 839 839 840 840 841 842 842 843 843 843 844 844 844 844 844 844 845 845 845 845 845 846 846 845 845 845 844 844 844 842 841 840 840 842 843 843 842 842 841 841 840 840 841 842 842 842 843 842 841 841 842 844
810 812 813 815 816 817 819 821 822 823 824 825 826 826 827 828 828 829 829 830 830 832 832 833 834 834 835 836 836 837 837 838 839 839 839 840 840 841 842 842 842 843 843 843 843 843 843 843 843 843 843 843 843 843 843 843 843 843 842 842 842 842 841 840 839 840 841 842 842 844 843 840 839 839 838 838 838 838 838 838 838 838 838 841 844
811 813 814 816 817 819 820 822 824 824 825 826 827 827 828 829 829 829 830 830 831 832 833 834 835 835 836 836 837 837 838 838 839 839 839 840 840 840 841 841 842 842 842 842 842 842 842 842 842 842 842 842 842 841 841 842 841 841 841 841 842 841 840 838 837 837 837 838 839 842 840 836 836 836 836 835 834 833 833 833 834 834 835 837 841
813 815 816 817 818 820 822 824 824 824 825 826 827 828 828 829 830 831 831 831 832 833 834 835 836 836 837 837 838 838 839 839 839 839 840 840 840 840 841 841 841 842 842 842 842 841 841 841 841 841 841 841 841 840 840 840 840 840 840 840 841 840 838 837 836 835 834 833 835 837 836 833 834 834 833 833 832 830 830 830 831 831 832 833 837